Location: Carnières
(50.1682°N, 3.3474°E)
Time: 05:08:34
(UTC+00:00)

Meteor 1-12 Rocket - Pass Details

Date: 23 May 2024
Orbit: 855 x 925 km, 81.2° (Epoch: 19 June)

Event Time Altitude Azimuth Distance (km) Brightness Sun altitude
Rises 00:00:23 0° 347° (NNW) 3,510 8.8 -19.1°
Reaches altitude 10° 00:02:50 10° 348° (NNW) 2,577 7.8 -19.1°
Maximum altitude 00:08:44 88° 77° (ENE) 914 4.3 -19.0°
Enters shadow 00:11:46 31° 167° (SSE) 1,546 5.0 -18.9°
